Rbgn^[z[y[W
メイン
   新天体発見情報
     Comet P/2020 S1 (PANSTARRS)
投稿するにはまず登録を

スレッド表示 | 新しいものから 前のトピック | 次のトピック | 下へ
投稿者 スレッド
佐藤裕久
投稿日時: 2020-9-23 15:08
モデレータ
登録日: 2005-6-12
居住地: 日本
投稿: 2129
オンライン
Comet P/2020 S1 (PANSTARRS)

Yudish Ramanjoolo (ハワイ大学, 天文学研究所)の通報によると、9月16日UT、Haleakalaにある
Pan-STARRS1 1.8-m Ritchey-Chretien反射望遠鏡で得た画像から彗星を発見した。
R. Werykの報告では、発見の夜のスタックイメージは、p.a. 310°に向かって4" の尾が見えた。
彗星の頭部は1".0のシーイングで約1".6 (FWHM)に見えた。

彗星機能の報告は次の通り:

OC   Date        Reporter           Coma    Tail    PA          Exposures
568  2020-09-17  R. Weryk           0".6      3"    310           2x60s
F51  2020-09-17  Y. Ramanjooloo     2".02     3"    268           4x60s

発見位置は次のとおり、

     2020 UT             R.A. (2000) Decl.       Mag.
     Sept.16.41632    0 07 55.45   -15 07 47.4   21.7
          16.43418    0 07 54.92   -15 07 54.9   21.7
          16.45209    0 07 54.38   -15 08 02.5   21.4
          16.46984    0 07 53.87   -15 08 09.9   21.6

MPCの楕円軌道要素、位置推算表は次のとおり、

Orbital elements:
    P/2020 S1 (PANSTARRS)                                                       
Epoch 2021 Jan. 26.0 TT = JDT 2459240.5                                         
T 2021 Jan. 17.02620 TT                                 Rudenko                 
q   2.9471550            (2000.0)            P               Q                  
n   0.06738977     Peri.  254.89926     +0.88966385     -0.41820776             
a   5.9805355      Node   129.45999     +0.45350404     +0.85606509             
e   0.5072089      Incl.   13.73431     -0.05321961     +0.30373482             
P  14.6                                                                         
From 27 observations 2020 July 30-Sept. 17, mean residual 0".3.                 
                                                                                
    P/2020 S1 (PANSTARRS)                                                       
Epoch 2035 Sept. 30.0 TT = JDT 2464600.5                                        
T 2035 Sept. 16.80158 TT                                Rudenko                 
q   2.9685219            (2000.0)            P               Q                  
n   0.06624268     Peri.  254.79909     +0.89263295     -0.41163049             
a   6.0493786      Node   129.14469     +0.44738611     +0.85891525             
e   0.5092848      Incl.   13.70582     -0.05524571     +0.30467185             
P  14.9                                                                         
From 27 observations 2020 July 30-Sept. 17, mean residual 0".3.                 
                                                                                
    P/2020 S1 (PANSTARRS)                                                       
Epoch 2020 May 31.0 TT = JDT 2459000.5                                          
T 2021 Jan. 16.85592 TT                                 Rudenko                 
q   2.9474798            (2000.0)            P               Q                  
n   0.06733796     Peri.  254.86073     +0.88995783     -0.41758287             
a   5.9836029      Node   129.45834     +0.45290258     +0.85638031             
e   0.5074072      Incl.   13.73379     -0.05342571     +0.30370597             
P  14.6                                                                         
From 27 observations 2020 July 30-Sept. 17, mean residual 0".3.                 
                                                                                
Ephemeris:
Date    TT    R. A. (2000) Decl.     Delta      r    Elong.  Phase   m1
2020 08 20    00 16 35.6 -11 46 07   2.2413  3.1318   146.0    10.4  20.7
...
2020 09 04    00 13 02.3 -13 36 50   2.1349  3.0981   159.1     6.7  20.6
...
2020 09 12    00 09 54.4 -14 36 21   2.1011  3.0814   164.1     5.1  20.5
...
2020 09 18    00 07 10.9 -15 18 36   2.0869  3.0694   165.3     4.8  20.5
2020 09 19    00 06 42.4 -15 25 20   2.0855  3.0675   165.2     4.8  20.5
2020 09 20    00 06 13.7 -15 31 57   2.0844  3.0655   165.0     4.9  20.5
...
2020 09 26    00 03 19.0 -16 09 03   2.0831  3.0542   162.5     5.7  20.4
...
2020 10 04    23 59 31.1 -16 50 05   2.0961  3.0400   156.6     7.5  20.4
...
2020 10 19    23 53 45.3 -17 34 58   2.1625  3.0158   142.7    11.5  20.5

(MPEC 2020-S102、CBET 4853)

スレッド表示 | 新しいものから 前のトピック | 次のトピック | トップ

投稿するにはまず登録を
 
© 1999 Tsutomu Seki.